Weather observations for the past three days for
Wales
| Date | Time (akdt) | Wind (mph) | Vis. (mi.) | Weather | Sky Cond. | Temperature (ºF) | Relative Humidity | Wind Chill (°F) | Heat Index (°F) | Pressure | Precipitation (in) | ||||||
|---|---|---|---|---|---|---|---|---|---|---|---|---|---|---|---|---|---|
| Air | Dwpt | 6 hour | altimeter (in) | sea level (mb) | 1 hr | 3 hr | 6 hr | ||||||||||
| Max. | Min. | ||||||||||||||||
| 03 | 22:56 | S 14 | 10.00 | Overcast | FEW009 OVC044 | 28 | 28 | 100% | 18 | 30.08 | 1018.5 | ||||||
| 03 | 21:56 | S 14 | 10.00 | Mostly Cloudy | BKN014 | 28.9 | 28 | 30 | 28.9 | 96% | 19 | 30.07 | 1018.3 | ||||
| 03 | 20:56 | S 14 | 10.00 | Overcast | OVC024 | 28.9 | 28.9 | 100% | 19 | 30.07 | 1018.3 | ||||||
| 03 | 19:56 | S 15 | 10.00 | Overcast | OVC014 | 28.9 | 28 | 96% | 18 | 30.07 | 1018.2 | ||||||
| 03 | 18:56 | SW 16 | 10.00 | Overcast | OVC024 | 28.9 | 27 | 92% | 18 | 30.06 | 1018.1 | ||||||
| 03 | 17:56 | S 17 | 10.00 | Unknown Precip | OVC018 | 28.9 | 28 | 96% | 18 | 30.06 | 1017.8 | ||||||
| 03 | 16:56 | S 17 | 10.00 | Overcast | BKN016 OVC021 | 30 | 28.9 | 96% | 19 | 30.05 | 1017.8 | ||||||
| 03 | 15:56 | SW 20 | 10.00 | Overcast | SCT012 OVC019 | 30 | 28 | 30 | 28 | 92% | 18 | 30.05 | 1017.7 | ||||
| 03 | 14:56 | S 18 | 10.00 | Overcast | BKN014 OVC019 | 28.9 | 28 | 96% | 17 | 30.05 | 1017.7 | ||||||
| 03 | 13:56 | S 21 | 10.00 | Overcast and Breezy | BKN021 OVC029 | 30 | 27 | 88% | 18 | 30.05 | 1017.5 | ||||||
| 03 | 12:56 | S 20 | 10.00 | Overcast | OVC019 | 28.9 | 26.1 | 89% | 17 | 30.04 | 1017.3 | ||||||
| 03 | 11:56 | SW 18 | 10.00 | Overcast | OVC013 | 28.9 | 28 | 96% | 17 | 30.03 | 1016.9 | ||||||
| 03 | 10:56 | S 23 | 10.00 | Overcast and Breezy | OVC010 | 28 | 28 | 100% | 15 | 30.01 | 1016.2 | ||||||
| 03 | 09:56 | S 21 | 9.00 | Light Snow and Breezy | OVC007 | 28 | 28 | 28 | 26.1 | 100% | 15 | 30 | 1016.0 | ||||
| 03 | 08:56 | S 23 | 7.00 | Light Snow and Breezy | OVC009 | 28 | 28 | 100% | 15 | 30 | 1015.8 | ||||||
| 03 | 07:56 | S 18 | 9.00 | Light Snow | OVC013 | 27 | 27 | 100% | 15 | 29.99 | 1015.6 | ||||||
| 03 | 06:56 | S 23 | 10.00 | Overcast and Breezy | FEW011 OVC026 | 27 | 27 | 100% | 13 | 29.99 | 1015.5 | ||||||
| 03 | 05:56 | S 15 | 10.00 | Overcast | OVC026 | 27 | 27 | 100% | 16 | 29.98 | 1015.3 | ||||||
| 03 | 04:56 | S 15 | 10.00 | Overcast | SCT011 OVC024 | 26.1 | 26.1 | 100% | 15 | 29.98 | 1015.3 | ||||||
| 03 | 03:56 | S 13 | 10.00 | Overcast | OVC024 | 26.1 | 25 | 26.1 | 23 | 96% | 16 | 29.98 | 1015.2 | ||||
| 03 | 02:56 | S 14 | 10.00 | Overcast | OVC026 | 26.1 | 24.1 | 92% | 15 | 29.97 | 1014.8 | ||||||
| 02 | 23:56 | S 10 | 10.00 | Fair | CLR | 24.1 | 23 | 96% | 15 | 29.92 | 1013.3 | ||||||
| 02 | 22:56 | SW 8 | 10.00 | Fair | CLR | 23 | 21 | 92% | 15 | 29.9 | 1012.4 | ||||||
| 02 | 21:56 | W 7 | 10.00 | Partly Cloudy | SCT075 | 26.1 | 19.9 | 33.1 | 25 | 78% | 19 | 29.87 | 1011.5 | ||||
| 02 | 20:56 | W 10 | 9.00 | Light Snow | FEW021 BKN030 OVC060 | 27 | 19.9 | 75% | 18 | 29.85 | 1010.9 | ||||||
| 02 | 19:56 | W 14 | 9.00 | Light Snow | OVC017 | 26.1 | 21 | 81% | 15 | 29.84 | 1010.5 | ||||||
| 02 | 18:56 | W 10 | 10.00 | Overcast | OVC021 | 26.1 | 19.9 | 78% | 17 | 29.81 | 1009.6 | ||||||
| 02 | 17:56 | NW 12 | 10.00 | Overcast | BKN025 OVC033 | 27 | 19 | 72% | 17 | 29.79 | 1008.9 | ||||||
| 02 | 16:56 | NW 5 | 10.00 | Mostly Cloudy | BKN017 | 30.9 | 19.9 | 64% | 27 | 29.77 | 1008.1 | ||||||
| 02 | 15:56 | W 5 | 10.00 | Overcast | OVC015 | 32 | 19 | 32 | 23 | 59% | 28 | 29.75 | 1007.3 | ||||
| 02 | 14:56 | N 10 | 10.00 | Overcast | BKN017 OVC047 | 26.1 | 19 | 75% | 17 | 29.73 | 1006.6 | ||||||
| 02 | 13:56 | NW 14 | 10.00 | Overcast | SCT013 OVC045 | 25 | 19 | 78% | 14 | 29.7 | 1005.8 | ||||||
| 02 | 12:56 | NW 16 | 10.00 | Overcast | BKN013 OVC043 | 24.1 | 19.9 | 84% | 12 | 29.68 | 1005.0 | ||||||
| 02 | 11:56 | NW 14 | 10.00 | Overcast | BKN013 OVC045 | 23 | 19 | 85% | 11 | 29.65 | 1004.1 | ||||||
| 02 | 10:56 | NW 14 | 10.00 | Overcast | BKN013 OVC044 | 23 | 19 | 85% | 11 | 29.62 | 1003.1 | ||||||
| 02 | 09:56 | NW 13 | 10.00 | Overcast | BKN011 OVC038 | 23 | 19.9 | 25 | 21.9 | 88% | 12 | 29.59 | 1002.1 | ||||
| 02 | 08:56 | NW 15 | 10.00 | Overcast | OVC011 | 21.9 | 21 | 96% | 10 | 29.58 | 1001.6 | ||||||
| 02 | 07:56 | NW 14 | 10.00 | Overcast | OVC013 | 23 | 21.9 | 96% | 11 | 29.55 | 1000.7 | ||||||
| 02 | 06:56 | N 12 | 10.00 | Overcast | OVC011 | 23 | 21.9 | 96% | 13 | 29.53 | 999.8 | ||||||
| 02 | 05:56 | N 13 | 8.00 | Light Snow | OVC009 | 23 | 23 | 100% | 12 | 29.5 | 999.1 | ||||||
| 02 | 04:56 | N 13 | 10.00 | Overcast | OVC009 | 24.1 | 24.1 | 100% | 13 | 29.48 | 998.4 | ||||||
| 02 | 03:56 | N 13 | 10.00 | Overcast | OVC009 | 25 | 25 | 28 | 25 | 100% | 14 | 29.46 | 997.7 | ||||
| 02 | 02:56 | N 10 | 10.00 | Overcast | OVC009 | 25 | 25 | 100% | 16 | 29.45 | 997.3 | ||||||
| 02 | 01:56 | N 12 | 10.00 | Overcast | OVC009 | 26.1 | 26.1 | 100% | 16 | 29.43 | 996.5 | ||||||
| 02 | 00:56 | N 20 | 9.00 | Light Snow | OVC009 | 26.1 | 26.1 | 100% | 13 | 29.41 | 995.9 | ||||||
| 01 | 23:56 | NW 18 | 5.00 | Light Snow Fog/Mist | OVC009 | 27 | 27 | 100% | 15 | 29.39 | 995.3 | ||||||
| 01 | 22:56 | N 16 | 4.00 | Light Snow Fog/Mist | BKN009 OVC023 | 27 | 27 | 100% | 16 | 29.38 | 994.8 | ||||||
| 01 | 21:56 | N 18 | 1.25 | Light Snow Fog/Mist | OVC008 | 28 | 28 | 32 | 28 | 100% | 16 | 29.36 | 994.3 | ||||
| 01 | 20:56 | N 16 | 2.00 | Light Snow Fog/Mist | OVC006 | 28.9 | 28.9 | 100% | 18 | 29.35 | 994.0 | ||||||
| 01 | 19:56 | N 17 | 9.00 | Unknown Precip | OVC004 | 30 | 30 | 100% | 19 | 29.35 | 993.7 | ||||||
| 01 | 18:56 | N 21 | 9.00 | Overcast and Breezy | OVC004 | 30.9 | 30.9 | 100% | 19 | 29.34 | 993.5 | ||||||
| 01 | 17:56 | N 18 | 6.00 | Fog/Mist | OVC004 | 30.9 | 30.9 | 100% | 20 | 29.34 | 993.4 | ||||||
| 01 | 16:56 | N 17 | 5.00 | Unknown Precip Fog/Mist | OVC004 | 30.9 | 30.9 | 100% | 20 | 29.34 | 993.6 | ||||||
| 01 | 15:56 | N 18 | 5.00 | Unknown Precip Fog/Mist | OVC004 | 32 | 32 | 34 | 32 | 100% | 21 | 29.34 | 993.5 | ||||
| 01 | 14:56 | N 16 | 4.00 | Unknown Precip Fog/Mist | OVC004 | 32 | 32 | 100% | 22 | 29.34 | 993.4 | ||||||
| 01 | 13:56 | N 16 | 0.50 | Light Rain Fog | OVC004 | 33.1 | 33.1 | 100% | 23 | 29.34 | 993.6 | ||||||
| 01 | 12:56 | N 10 | 6.00 | Unknown Precip Fog/Mist | OVC004 | 34 | 34 | 100% | 27 | 29.35 | 993.8 | ||||||
| 01 | 11:56 | N 10 | 1.25 | Light Rain | OVC004 | 33.8 | 0 | 0% | 26 | 29.35 | 993.9 | ||||||
| 01 | 10:56 | NE 13 | 10.00 | Unknown Precip | OVC004 | 32 | 0 | 0% | 23 | 29.35 | 994.0 | ||||||
| 01 | 09:56 | NE 12 | 10.00 | Overcast | OVC004 | 32 | 32 | 32 | 32 | 100% | 24 | 29.36 | 994.2 | ||||
| 01 | 08:56 | NE 9 | 5.00 | Fog/Mist | OVC004 | 32 | 32 | 100% | 25 | 29.37 | 994.5 | ||||||
| 01 | 07:56 | NE 10 | 10.00 | Overcast | OVC004 | 32 | 32 | 100% | 24 | 29.38 | 994.9 | ||||||
| 01 | 06:56 | NE 14 | 0.75 | Unknown Precip Fog/Mist | OVC002 | 32 | 32 | 100% | 23 | 29.39 | 995.4 | ||||||
| 01 | 05:56 | NE 14 | 1.50 | Unknown Precip | OVC002 | 32 | 0 | 0% | 23 | 29.41 | 995.8 | ||||||
| 01 | 04:56 | NE 15 | 0.50 | Unknown Precip | OVC002 | 32 | 0 | 0% | 22 | 29.42 | 996.1 | ||||||
| 01 | 03:56 | NE 17 | 0.75 | Unknown Precip Fog/Mist | OVC002 | 32 | 32 | 33.1 | 30.9 | 100% | 22 | 29.43 | 996.6 | ||||
| 01 | 02:56 | NE 14 | 10.00 | Unknown Precip | OVC004 | 30.9 | 30.9 | 100% | 21 | 29.45 | 997.1 | ||||||
| 01 | 01:56 | NE 9 | 10.00 | Overcast | FEW005 BKN010 OVC023 | 32 | 32 | 100% | 25 | 29.47 | 997.8 | ||||||
| 01 | 00:56 | E 12 | 10.00 | Overcast | OVC014 | 32 | 0 | 0% | 24 | 29.48 | 998.3 | ||||||
| 30 | 23:56 | NE 14 | 10.00 | Unknown Precip | BKN003 OVC008 | 32 | 0 | 0% | 23 | 29.49 | 998.7 | ||||||
| Date | Time (akdt) | Wind (mph) | Vis. (mi.) | Weather | Sky Cond. | Air | Dwpt | Max. | Min. | Relative Humidity | Wind Chill (°F) | Heat Index (°F) | altimeter (in) | sea level (mb) | 1 hr | 3 hr | 6 hr |
| 6 hour | |||||||||||||||||
| Temperature (ºF) | Pressure | Precipitation (in) | |||||||||||||||